Location: *
(48.4333°N, 5.0333°W)
Time: 18:57:42
(UTC+00:00)

LilacSat-2 - Pass Details

Date: 27 October 2021
Orbit: 511 x 532 km, 97.5° (Epoch: 29 November)

Event Time Altitude Azimuth Distance (km) Brightness Sun altitude
Rises 17:45:39 0° 186° (S) 2,635 ? -6.7°
Reaches altitude 10° 17:47:52 10° 195° (SSW) 1,748 ? -7.1°
Maximum altitude 17:51:22 36° 263° (W) 841 ? -7.7°
Drops below altitude 10° 17:54:52 10° 331° (NNW) 1,752 ? -8.2°
Sets 17:57:06 0° 340° (NNW) 2,642 ? -8.6°
